1485820801.28,65175,10.44,73212.8,-9.11,-41.93,-42.19,0,*58
1485820802.5,65176,10.44,73212.5,-9.13,-42.13,-42.51,0,*5E
1485820803.76,65177,10.44,73214.8,-9.11,-41.93,-42.13,0,*50
1485820805.0,65178,10.44,73210.5,-9.13,-41.81,-42.13,0,*5E
1485820806.24,65179,10.44,73214.8,-9.13,-41.99,-42.19,0,*5C
1485820807.51,65180,10.44,73212.8,-9.11,-41.99,-42.31,0,*52
1485820808.78,65181,10.44,73212.5,-9.11,-42.19,-42.37,0,*5E
1485820809.99,65182,10.44,73212.3,-9.13,-42.13,-42.37,0,*55
1485820811.29,65183,10.44,73212.3,-9.11,-42.31,-42.69,0,*5D
1485820812.53,65184,10.44,73214.8,-9.13,-42.31,-42.51,0,*53
1485820813.78,65185,10.44,73210.0,-9.11,-42.13,-42.51,0,*50
1485820815.02,65186,10.44,73206.5,-9.13,-42.13,-42.31,0,*57
1485820816.29,65187,10.44,73208.8,-9.13,-42.19,-42.57,0,*5C
1485820817.55,65188,10.44,73208.5,-9.13,-42.31,-42.69,0,*54
1485820818.8,65189,10.44,73208.8,-9.13,-42.19,-42.51,0,*54
1485820820.07,65190,10.44,73214.8,-9.13,-42.19,-42.31,0,*5A
1485820821.34,65191,10.44,73216.8,-9.15,-42.19,-42.37,0,*5B
1485820822.6,65192,10.44,73212.0,-9.15,-42.19,-42.37,0,*58
1485820823.89,65193,10.44,73216.5,-9.15,-42.19,-42.45,0,*5C
1485820825.16,65194,10.44,73214.0,-9.15,-41.99,-42.19,0,*59
1485820826.4,65195,10.44,73212.3,-9.17,-41.87,-42.25,0,*5A
1485820827.69,65196,10.44,73216.8,-9.15,-41.67,-42.19,0,*5A
1485820828.95,65197,10.44,73210.8,-9.15,-41.55,-41.99,0,*51
1485820830.19,65198,10.44,73214.5,-9.15,-41.61,-41.87,0,*56
1485820831.48,65199,10.44,73210.5,-9.15,-41.55,-41.81,0,*56
1485820832.77,65200,10.44,73214.3,-9.15,-41.67,-42.05,0,*5B
1485820833.98,65201,10.44,73212.8,-9.13,-41.61,-41.99,0,*5C
1485820835.2,65202,10.44,73214.3,-9.13,-41.73,-41.99,0,*5C
1485820836.44,65203,10.44,73208.0,-9.15,-41.87,-42.25,0,*54
1485820837.67,65204,10.44,73212.0,-9.15,-41.99,-42.25,0,*5C
1485820838.96,65205,10.44,73210.8,-9.15,-42.19,-42.57,0,*53
1485820840.25,65206,10.44,73208.3,-9.15,-42.19,-42.57,0,*50
1485820841.51,65207,10.44,73208.0,-9.17,-42.05,-42.25,0,*5B
1485820842.78,65208,10.44,73210.0,-9.15,-41.87,-42.19,0,*50
1485820844.05,65209,10.44,73206.8,-9.17,-41.87,-42.19,0,*53
1485820845.29,65210,10.44,73208.0,-9.17,-41.99,-42.25,0,*5B
1485820846.56,65211,10.44,73208.5,-9.17,-41.87,-42.19,0,*5A
1485820847.82,65212,10.44,73210.5,-9.15,-41.81,-42.25,0,*52
1485820849.11,65213,10.44,73210.8,-9.15,-42.19,-42.45,0,*57
1485820850.38,65214,10.44,73208.0,-9.15,-41.99,-42.19,0,*52
1485820851.64,65215,10.44,73208.5,-9.17,-42.05,-42.25,0,*58
1485820852.9,65216,10.44,73208.5,-9.17,-42.19,-42.37,0,*55
1485820854.14,65217,10.44,73206.3,-9.15,-41.87,-42.25,0,*51
1485820855.41,65218,10.44,73206.8,-9.17,-41.99,-42.19,0,*5C
1485820856.65,65219,10.44,73210.5,-9.15,-41.61,-41.99,0,*53
1485820857.89,65220,10.44,73208.5,-9.15,-41.41,-41.61,0,*5C
1485820859.17,65221,10.44,73210.3,-9.15,-41.67,-42.05,0,*58
1485820860.44,65222,10.44,73208.5,-9.17,-41.87,-42.19,0,*5A
1485820861.68,65223,10.44,73208.8,-9.15,-41.87,-42.25,0,*56
1485820862.95,65224,10.44,73212.8,-9.15,-41.99,-42.19,0,*51
1485820864.19,65225,10.44,73208.5,-9.15,-41.61,-41.87,0,*53
1485820865.45,65226,10.44,73208.3,-9.15,-41.61,-42.05,0,*59
1485820866.74,65227,10.44,73212.5,-9.15,-41.67,-42.05,0,*5E
1485820868.0,65228,10.44,73210.0,-9.15,-41.41,-41.81,0,*5A
1485820869.29,65229,10.44,73210.0,-9.15,-41.67,-42.05,0,*50
1485820870.58,65230,10.44,73212.3,-9.17,-41.81,-42.05,0,*52
1485820871.84,65231,10.44,73208.5,-9.17,-41.61,-42.05,0,*5D
1485820873.11,65232,10.44,73210.3,-9.17,-41.87,-42.19,0,*5B
1485820874.35,65233,10.44,73208.0,-9.15,-41.87,-42.25,0,*57
1485820875.64,65234,10.44,73210.0,-9.15,-41.67,-42.05,0,*5C
1485820876.9,65235,10.44,73210.3,-9.17,-41.55,-41.87,0,*57
1485820878.19,65236,10.44,73212.5,-9.17,-41.67,-42.05,0,*5C
1485820879.45,65237,10.44,73212.8,-9.15,-41.41,-41.81,0,*54
1485820880.72,65238,10.44,73212.3,-9.15,-40.85,-41.17,0,*5D
1485820881.99,65239,10.44,73214.0,-9.13,-41.35,-41.55,0,*56
1485820883.26,65240,10.44,73210.8,-9.13,-41.35,-41.55,0,*58
1485820884.5,65241,10.44,73214.3,-9.13,-41.35,-41.61,0,*5E
1485820885.76,65242,10.44,73210.8,-9.13,-41.35,-41.81,0,*53
1485820887.02,65243,10.44,73208.8,-9.13,-41.55,-41.93,0,*57
1485820888.23,65244,10.44,73214.0,-9.13,-41.49,-41.73,0,*53
1485820889.47,65245,10.44,73210.8,-9.13,-41.55,-41.99,0,*5B
1485820890.71,65246,10.44,73208.0,-9.11,-41.73,-41.99,0,*5E
1485820891.93,65247,10.44,73212.8,-9.13,-41.73,-41.99,0,*5D
1485820893.17,65248,10.44,73208.5,-9.13,-41.35,-41.61,0,*57
1485820894.4,65249,10.44,73212.3,-9.13,-41.49,-41.93,0,*50
1485820895.66,65250,10.44,73214.5,-9.13,-41.55,-41.93,0,*55
1485820896.89,65251,10.44,73214.8,-9.13,-41.49,-41.93,0,*59
1485820898.13,65252,10.44,73208.8,-9.13,-41.49,-41.81,0,*59
1485820899.39,65253,10.44,73214.3,-9.11,-41.49,-41.81,0,*5A
1485820900.68,65254,10.44,73214.8,-9.11,-41.35,-41.81,0,*56
1485820901.97,65255,10.44,73210.3,-9.11,-41.55,-41.81,0,*51
1485820903.2,65256,10.44,73212.0,-9.13,-41.93,-42.13,0,*52
1485820904.45,65257,10.44,73210.5,-9.13,-41.99,-42.31,0,*59
1485820905.75,65258,10.44,73208.5,-9.11,-41.93,-42.31,0,*5E
1485820907.04,65259,10.44,73214.8,-9.11,-41.81,-42.19,0,*56
1485820908.3,65260,10.44,73212.8,-9.11,-41.49,-41.81,0,*5A
1485820909.54,65261,10.44,73208.3,-9.13,-41.29,-41.55,0,*56
1485820910.78,65262,10.44,73212.0,-9.13,-41.29,-41.55,0,*55
1485820912.01,65263,10.44,73210.8,-9.13,-41.49,-41.81,0,*5B
1485820913.25,65264,10.44,73212.0,-9.11,-41.73,-41.99,0,*5E
1485820914.46,65265,10.44,73212.0,-9.13,-41.73,-42.13,0,*5C
1485820915.7,65266,10.44,73214.5,-9.11,-41.49,-41.73,0,*51
1485820916.94,65267,10.44,73210.8,-9.13,-41.29,-41.55,0,*50
1485820918.2,65268,10.44,73212.0,-9.13,-41.55,-41.93,0,*5E
1485820919.43,65269,10.44,73212.3,-9.13,-41.49,-41.81,0,*51
1485820920.7,65270,10.44,73214.5,-9.13,-41.81,-42.19,0,*5F
1485820921.96,65271,10.44,73212.3,-9.11,-41.81,-42.13,0,*56
1485820923.22,65272,10.44,73214.3,-9.13,-41.55,-41.93,0,*55
1485820924.46,65273,10.44,73216.5,-9.13,-41.49,-41.81,0,*5A
1485820925.7,65274,10.44,73214.5,-9.11,-41.49,-41.73,0,*52
1485820926.94,65275,10.44,73214.5,-9.13,-41.35,-41.73,0,*5A
1485820928.15,65276,10.44,73214.5,-9.13,-41.29,-41.61,0,*57
1485820929.41,65277,10.44,73214.8,-9.11,-41.29,-41.55,0,*53
1485820930.65,65278,10.44,73214.3,-9.11,-41.73,-41.99,0,*53
1485820931.92,65279,10.44,73214.0,-9.11,-41.81,-42.13,0,*5E
1485820933.16,65280,10.44,73216.8,-9.11,-41.61,-41.99,0,*57
1485820934.4,65281,10.44,73214.3,-9.11,-41.49,-41.61,0,*5B
1485820935.66,65282,10.44,73216.8,-9.11,-40.97,-41.29,0,*56
1485820936.91,65283,10.44,73216.3,-9.11,-40.91,-41.17,0,*5C
1485820938.17,65284,10.44,73216.8,-9.11,-41.49,-41.93,0,*53
1485820939.41,65285,10.44,73214.3,-9.11,-41.49,-41.73,0,*5C
1485820940.65,65286,10.44,73212.8,-9.11,-41.61,-41.99,0,*51
1485820941.93,65287,10.44,73212.8,-9.11,-41.55,-41.93,0,*5D
1485820943.2,65288,10.44,73214.0,-9.11,-41.61,-41.93,0,*55
1485820944.46,65289,10.44,73214.3,-9.11,-41.81,-42.13,0,*51
1485820945.7,65290,10.44,73210.8,-9.09,-41.73,-42.05,0,*5A
1485820946.96,65291,10.44,73210.8,-9.09,-41.67,-41.93,0,*52
1485820948.23,65292,10.44,73208.3,-9.11,-41.35,-41.73,0,*51
1485820949.5,65293,10.44,73212.5,-9.11,-41.11,-41.35,0,*54
1485820950.74,65294,10.44,73206.3,-9.11,-41.17,-41.49,0,*5E
1485820951.97,65295,10.44,73210.5,-9.07,-41.49,-41.73,0,*5A
1485820953.19,65296,10.44,73212.5,-9.09,-41.49,-41.87,0,*5C
1485820954.42,65297,10.44,73212.0,-9.09,-41.49,-41.93,0,*58
1485820955.67,65298,10.44,73208.3,-9.09,-41.41,-41.55,0,*55
1485820956.89,65299,10.44,73208.0,-9.09,-41.41,-41.87,0,*5B
1485820958.17,65300,10.44,73208.3,-9.09,-41.23,-41.55,0,*51
1485820959.39,65301,10.44,73208.3,-9.07,-41.29,-41.49,0,*59
1485820960.61,65302,10.44,73212.0,-9.09,-41.41,-41.73,0,*53
1485820961.84,65303,10.44,73212.0,-9.09,-40.91,-41.11,0,*5A
1485820963.06,65304,10.44,73214.0,-9.09,-40.91,-41.29,0,*56
1485820964.32,65305,10.44,73208.5,-9.07,-41.29,-41.55,0,*50
1485820965.53,65306,10.44,73208.5,-9.09,-41.11,-41.41,0,*53
1485820966.77,65307,10.44,73212.0,-9.07,-41.11,-41.29,0,*52
1485820968.0,65308,10.44,73208.0,-9.07,-41.41,-41.87,0,*5C
1485820969.27,65309,10.44,73210.3,-9.07,-41.55,-41.87,0,*58
1485820970.5,65310,10.44,73208.0,-9.05,-41.41,-41.81,0,*51
1485820971.76,65311,10.44,73206.0,-9.07,-41.29,-41.67,0,*54
1485820973.03,65312,10.44,73208.5,-9.07,-41.41,-41.67,0,*59
1485820974.3,65313,10.44,73210.8,-9.07,-41.41,-41.67,0,*58
1485820975.55,65314,10.44,73214.8,-9.07,-41.49,-41.93,0,*5C
1485820976.79,65315,10.44,73210.0,-9.05,-41.67,-41.99,0,*59
1485820978.03,65316,10.44,73210.8,-9.07,-41.49,-41.87,0,*5B
1485820979.29,65317,10.44,73212.3,-9.07,-41.41,-41.55,0,*5D
1485820980.54,65318,10.44,73210.3,-9.07,-41.29,-41.55,0,*5C
1485820981.81,65319,10.44,73212.3,-9.07,-41.29,-41.67,0,*5C
1485820983.09,65320,10.44,73210.3,-9.07,-41.67,-41.93,0,*57
1485820984.32,65321,10.44,73212.3,-9.07,-41.87,-42.13,0,*53
1485820985.58,65322,10.44,73210.8,-9.07,-41.55,-41.87,0,*51
1485820986.84,65323,10.44,73210.5,-9.07,-41.49,-41.93,0,*58
1485820988.09,65324,10.44,73210.8,-9.07,-41.73,-42.05,0,*5A
1485820989.33,65325,10.44,73210.5,-9.05,-41.67,-41.99,0,*5A
1485820990.58,65326,10.44,73208.8,-9.05,-41.87,-42.19,0,*5C
1485820991.82,65327,10.44,73206.0,-9.05,-41.99,-42.19,0,*52
1485820993.03,65328,10.44,73206.3,-9.05,-41.87,-42.25,0,*5D
1485820994.28,65329,10.44,73206.0,-9.05,-41.87,-42.19,0,*53
1485820995.52,65330,10.44,73204.5,-9.05,-41.99,-42.19,0,*54
1485820996.78,65331,10.44,73206.0,-9.07,-41.93,-42.25,0,*52
1485820998.03,65332,10.44,73206.8,-9.07,-41.73,-42.05,0,*5D
1485820999.29,65333,10.44,73206.5,-9.07,-41.73,-42.05,0,*5C
1485821000.53,65334,10.44,73200.3,-9.09,-41.93,-42.25,0,*59
1485821001.8,65335,10.44,73204.0,-9.05,-42.19,-42.45,0,*53
1485821003.08,65336,10.44,73206.5,-9.07,-42.45,-42.69,0,*55
1485821004.34,65337,10.44,73206.5,-9.07,-42.31,-42.51,0,*5C
1485821005.61,65338,10.44,73204.0,-9.09,-42.45,-42.83,0,*51
1485821006.85,65339,10.44,73204.5,-9.07,-42.25,-42.63,0,*56
1485821008.1,65340,10.44,73200.8,-9.09,-42.13,-42.31,0,*54
1485821009.37,65341,10.44,73208.3,-9.09,-42.05,-42.31,0,*52
1485821010.64,65342,10.44,73204.3,-9.09,-42.05,-42.31,0,*51
1485821011.9,65343,10.44,73210.3,-9.07,-41.73,-42.05,0,*5B
1485821013.17,65344,10.44,73208.5,-9.09,-41.67,-42.05,0,*57
1485821014.4,65345,10.44,73210.5,-9.07,-41.49,-41.87,0,*5D
1485821015.63,65346,10.44,73210.5,-9.07,-41.29,-41.49,0,*5A
1485821016.89,65347,10.44,73206.8,-9.07,-41.29,-41.55,0,*56
1485821018.17,65348,10.44,73212.5,-9.07,-41.55,-41.93,0,*58
1485821019.42,65349,10.44,73212.3,-9.07,-41.73,-41.93,0,*5D
1485821020.67,65350,10.44,73212.5,-9.07,-41.73,-41.93,0,*55
1485821021.89,65351,10.44,73212.5,-9.05,-41.61,-41.87,0,*50
1485821023.13,65352,10.44,73214.0,-9.05,-41.81,-41.87,0,*5D
1485821024.37,65353,10.44,73214.3,-9.05,-41.81,-41.99,0,*53
1485821025.59,65354,10.44,73210.8,-9.05,-41.61,-41.87,0,*55
1485821026.85,65355,10.44,73212.5,-9.05,-41.81,-42.05,0,*53
1485821028.13,65356,10.44,73212.5,-9.07,-41.67,-42.05,0,*5A
1485821029.42,65357,10.44,73208.5,-9.07,-41.67,-41.93,0,*57
1485821030.66,65358,10.44,73210.5,-9.05,-41.35,-41.49,0,*5A
1485821031.87,65359,10.44,73212.0,-9.05,-41.17,-41.41,0,*53
1485821033.08,65360,10.44,73206.0,-9.05,-41.17,-41.41,0,*59
1485821034.35,65361,10.44,73206.5,-9.03,-40.85,-41.17,0,*57
1485821035.61,65362,10.44,73206.8,-9.03,-40.85,-41.17,0,*54
1485821036.88,65363,10.44,73206.5,-9.03,-41.03,-41.23,0,*5D
1485821038.14,65364,10.44,73202.8,-9.03,-40.79,-41.17,0,*51
1485821039.4,65365,10.44,73200.5,-8.99,-40.97,-41.29,0,*5F
1485821040.63,65366,10.44,73202.3,-8.97,-40.97,-41.29,0,*52
1485821041.88,65367,10.44,73198.5,-8.97,-40.91,-40.97,0,*51
1485821043.14,65368,10.44,73200.3,-8.97,-40.79,-40.97,0,*58
1485821044.35,65369,10.44,73204.0,-8.97,-41.11,-41.17,0,*5F
1485821045.61,65370,10.44,73202.3,-8.95,-40.85,-41.11,0,*5F
1485821046.86,65371,10.44,73202.8,-8.93,-40.85,-41.03,0,*5B
1485821048.12,65372,10.44,73198.3,-8.95,-40.85,-40.91,0,*54
1485821049.36,65373,10.44,73202.0,-8.93,-40.85,-41.03,0,*59
1485821050.6,65374,10.44,73198.8,-8.93,-41.11,-41.35,0,*57
1485821051.87,65375,10.44,73200.0,-8.93,-41.23,-41.55,0,*51
1485821053.1,65376,10.44,73200.8,-8.93,-41.23,-41.49,0,*5F
1485821054.34,65377,10.44,73198.3,-8.93,-41.11,-41.35,0,*54
1485821055.6,65378,10.44,73196.3,-8.91,-41.23,-41.41,0,*5B
1485821056.86,65379,10.44,73192.8,-8.91,-41.23,-41.49,0,*52
1485821058.08,65380,10.44,73198.0,-8.91,-41.29,-41.49,0,*5E
1485821059.31,65381,10.44,73194.3,-8.91,-41.17,-41.41,0,*5A
1485821060.57,65382,10.44,73194.0,-8.91,-41.41,-41.67,0,*5E
1485821061.84,65383,10.44,73194.5,-8.89,-41.23,-41.55,0,*53
1485821063.07,65384,10.44,73192.0,-8.91,-41.17,-41.29,0,*51
1485821064.28,65385,10.44,73192.5,-8.89,-41.11,-41.41,0,*51
1485821065.52,65386,10.44,73196.8,-8.89,-41.23,-41.41,0,*53
1485821066.79,65387,10.44,73196.3,-8.89,-41.23,-41.55,0,*57
1485821068.02,65388,10.44,73196.5,-8.89,-41.17,-41.55,0,*5F
1485821069.26,65389,10.44,73192.0,-8.87,-41.11,-41.41,0,*53
1485821070.5,65390,10.44,73194.3,-8.87,-41.41,-41.61,0,*5C
1485821071.75,65391,10.44,73190.5,-8.87,-41.55,-41.61,0,*58
1485821072.96,65392,10.44,73196.0,-8.85,-41.73,-41.99,0,*5A
1485821074.23,65393,10.44,73192.8,-8.87,-41.81,-41.99,0,*54
1485821075.49,65394,10.44,73190.3,-8.87,-41.93,-41.99,0,*50
1485821076.72,65395,10.44,73190.5,-8.87,-41.99,-42.13,0,*5A
1485821077.95,65396,10.44,73188.0,-8.85,-41.73,-41.93,0,*54
1485821079.21,65397,10.44,73190.8,-8.87,-41.61,-41.81,0,*57
1485821080.48,65398,10.44,73190.5,-8.87,-41.55,-41.73,0,*52
1485821081.71,65399,10.44,73192.3,-8.87,-41.41,-41.61,0,*55
1485821082.95,65400,10.44,73192.8,-8.87,-41.41,-41.61,0,*52
1485821084.16,65401,10.44,73192.8,-8.85,-41.41,-41.61,0,*51
1485821085.39,65402,10.44,73194.0,-8.85,-41.55,-41.61,0,*57
1485821086.63,65403,10.44,73192.5,-8.87,-41.41,-41.61,0,*51
1485821087.86,65404,10.44,73192.5,-8.85,-41.29,-41.55,0,*5D
1485821089.1,65405,10.44,73192.8,-8.85,-41.67,-41.87,0,*59
1485821090.39,65406,10.44,73196.3,-8.87,-41.81,-41.81,0,*56
1485821091.59,65407,10.44,73198.3,-8.85,-41.29,-41.49,0,*53
1485821092.86,65408,10.44,73198.8,-8.85,-41.35,-41.55,0,*5C
1485821094.1,65409,10.44,73196.0,-8.83,-41.67,-41.73,0,*58
1485821095.33,65410,10.44,73196.3,-8.83,-41.87,-42.05,0,*5C
1485821096.6,65411,10.44,73196.0,-8.85,-41.93,-42.31,0,*59
1485821097.86,65412,10.44,73198.8,-8.85,-42.05,-42.45,0,*55
1485821099.09,65413,10.44,73198.5,-8.85,-42.25,-42.45,0,*56
1485821100.36,65414,10.44,73198.0,-8.87,-42.19,-42.51,0,*59
1485821101.66,65415,10.44,73198.3,-8.87,-42.19,-42.31,0,*5E
1485821102.87,65416,10.44,73200.8,-8.85,-42.13,-42.25,0,*50
1485821104.11,65417,10.44,73200.0,-8.85,-41.93,-42.25,0,*5A
1485821105.34,65418,10.44,73198.0,-8.85,-41.87,-42.05,0,*52
1485821106.6,65419,10.44,73198.3,-8.85,-41.93,-42.05,0,*56
1485821107.86,65420,10.44,73198.8,-8.87,-41.81,-42.13,0,*5A
1485821109.12,65421,10.44,73196.0,-8.87,-41.61,-41.81,0,*5D
1485821110.38,65422,10.44,73198.3,-8.87,-41.55,-41.61,0,*57
1485821111.59,65423,10.44,73196.3,-8.85,-41.17,-41.49,0,*58
1485821112.85,65424,10.44,73196.3,-8.87,-41.35,-41.61,0,*57
1485821114.11,65425,10.44,73190.8,-8.87,-40.97,-41.17,0,*5E
1485821115.36,65426,10.44,73192.8,-8.85,-40.85,-40.91,0,*53
1485821116.57,65427,10.44,73190.8,-8.85,-40.91,-41.11,0,*5E
1485821117.79,65428,10.44,73190.8,-8.83,-40.91,-41.17,0,*51
1485821119.01,65429,10.44,73190.8,-8.83,-41.03,-41.11,0,*5C
1485821120.24,65430,10.44,73190.5,-8.83,-41.11,-41.35,0,*51
1485821121.45,65431,10.44,73190.0,-8.83,-41.11,-41.29,0,*5D
1485821122.66,65432,10.44,73190.3,-8.83,-41.11,-41.17,0,*53
1485821123.9,65433,10.44,73194.5,-8.81,-41.11,-41.29,0,*5D
1485821125.14,65434,10.38,73186.8,-8.81,-41.03,-41.11,0,*52
1485821126.38,65435,10.44,73190.5,-8.81,-40.91,-41.03,0,*5A
1485821127.68,65436,10.44,73188.5,-8.77,-40.79,-40.85,0,*59
1485821128.9,65437,10.44,73188.5,-8.75,-40.91,-41.03,0,*53
1485821130.11,65438,10.44,73190.8,-8.75,-41.03,-41.17,0,*53
1485821131.35,65439,10.44,73194.3,-8.75,-41.03,-41.35,0,*52
1485821132.59,65440,10.44,73194.5,-8.75,-41.17,-41.35,0,*59
1485821133.83,65441,10.44,73194.8,-8.75,-41.17,-41.35,0,*58
1485821135.06,65442,10.44,73196.3,-8.75,-41.17,-41.35,0,*5B
1485821136.3,65443,10.44,73198.8,-8.75,-41.23,-41.41,0,*5E
1485821137.54,65444,10.44,73196.8,-8.75,-41.17,-41.35,0,*5D
1485821138.78,65445,10.44,73194.0,-8.75,-41.17,-41.35,0,*5C
1485821140.04,65446,10.44,73192.5,-8.73,-41.23,-41.41,0,*5D
1485821141.31,65447,10.44,73194.8,-8.73,-41.03,-41.23,0,*5A
1485821142.58,65448,10.38,73188.3,-8.73,-41.03,-41.23,0,*55
1485821143.85,65449,10.44,73198.5,-8.73,-41.41,-41.55,0,*53
1485821145.12,65450,10.44,73196.0,-8.73,-41.03,-41.35,0,*5B
1485821146.33,65451,10.44,73194.5,-8.71,-41.17,-41.41,0,*5E
1485821147.54,65452,10.44,73196.5,-8.71,-41.11,-41.29,0,*55
1485821148.77,65453,10.44,73194.3,-8.71,-41.11,-41.35,0,*59
1485821150.04,65454,10.44,73194.3,-8.69,-41.11,-41.35,0,*57
1485821151.27,65455,10.44,73192.0,-8.71,-41.29,-41.35,0,*54
1485821152.47,65456,10.44,73192.3,-8.71,-41.29,-41.49,0,*5C
1485821153.71,65457,10.44,73192.0,-8.71,-41.17,-41.35,0,*5B
1485821154.98,65458,10.44,73192.8,-8.69,-40.97,-41.17,0,*54
1485821156.24,65459,10.44,73192.5,-8.69,-41.11,-41.35,0,*5A
1485821157.53,65460,10.44,73194.3,-8.69,-41.35,-41.55,0,*50
1485821158.77,65461,10.44,73198.3,-8.69,-41.17,-41.29,0,*5A
1485821159.98,65462,10.44,73196.0,-8.71,-41.11,-41.17,0,*5B
1485821161.21,65463,10.44,73192.5,-8.71,-40.97,-41.29,0,*58
1485821162.42,65464,10.44,73194.0,-8.71,-41.11,-41.17,0,*5D
1485821163.66,65465,10.44,73194.8,-8.67,-40.85,-40.91,0,*58
1485821164.91,65466,10.44,73194.0,-8.67,-40.85,-41.03,0,*51
1485821166.15,65467,10.44,73194.0,-8.67,-41.03,-41.23,0,*5D
1485821167.36,65468,10.38,73190.3,-8.67,-41.03,-41.29,0,*58
1485821168.57,65469,10.44,73198.3,-8.67,-41.29,-41.49,0,*57
1485821169.8,65470,10.44,73196.8,-8.67,-41.23,-41.49,0,*55
1485821171.01,65471,10.44,73194.3,-8.67,-41.41,-41.49,0,*50
1485821172.22,65472,10.44,73198.8,-8.67,-41.41,-41.61,0,*59
1485821173.46,65473,10.44,73198.5,-8.67,-41.67,-41.87,0,*54
1485821174.72,65474,10.44,73198.0,-8.67,-41.67,-41.81,0,*55
1485821175.95,65475,10.44,73202.3,-8.67,-41.61,-41.81,0,*52
1485821177.22,65476,10.44,73202.5,-8.67,-41.67,-41.67,0,*5F
1485821178.46,65477,10.44,73200.8,-8.67,-41.67,-41.87,0,*50
1485821179.71,65478,10.44,73198.3,-8.67,-41.61,-41.67,0,*57
1485821180.97,65479,10.44,73200.8,-8.67,-41.67,-41.81,0,*58
1485821182.18,65480,10.44,73200.0,-8.67,-41.41,-41.61,0,*54
1485821183.41,65481,10.44,73202.8,-8.67,-41.61,-41.81,0,*59
1485821184.64,65482,10.44,73200.3,-8.67,-41.61,-41.81,0,*5A
1485821185.85,65483,10.44,73198.3,-8.67,-41.41,-41.49,0,*5D
1485821187.05,65484,10.38,73192.8,-8.67,-41.29,-41.49,0,*54
1485821188.26,65485,10.38,73194.0,-8.67,-41.61,-41.61,0,*53
1485821189.5,65486,10.38,73196.8,-8.67,-41.67,-41.87,0,*5E
1485821190.74,65487,10.44,73196.0,-8.67,-41.67,-41.87,0,*5F
1485821191.95,65488,10.44,73194.0,-8.67,-41.29,-41.49,0,*58
1485821193.16,65489,10.44,73194.8,-8.67,-41.41,-41.61,0,*5D
1485821194.42,65490,10.44,73198.3,-8.67,-41.67,-41.81,0,*5F
1485821195.62,65491,10.44,73196.5,-8.67,-41.41,-41.49,0,*5E
1485821196.83,65492,10.44,73198.0,-8.67,-41.41,-41.49,0,*5D
1485821198.04,65493,10.38,73194.5,-8.67,-41.29,-41.49,0,*52
1485821199.25,65494,10.38,73194.8,-8.67,-41.61,-41.87,0,*5B
1485821200.49,65495,10.44,73196.0,-8.67,-41.81,-41.99,0,*5B
1485821201.74,65496,10.44,73196.5,-8.67,-41.81,-42.05,0,*5E
1485821202.98,65497,10.44,73198.0,-8.67,-41.87,-42.05,0,*59
1485821204.22,65498,10.38,73198.0,-8.67,-41.87,-42.31,0,*51
1485821205.48,65499,10.44,73198.0,-8.69,-42.05,-42.37,0,*51
1485821206.74,65500,10.44,73200.0,-8.69,-42.13,-42.57,0,*51
1485821208.0,65501,10.44,73196.3,-8.69,-41.93,-42.25,0,*5E
1485821209.24,65502,10.38,73196.0,-8.69,-41.87,-42.13,0,*5D
1485821210.48,65503,10.44,73196.3,-8.69,-41.73,-41.87,0,*59
1485821211.74,65504,10.44,73202.3,-8.69,-41.87,-41.93,0,*50
1485821213.01,65505,10.44,73202.8,-8.69,-41.67,-41.87,0,*5A
1485821214.25,65506,10.44,73200.0,-8.69,-41.73,-41.87,0,*5C
1485821215.48,65507,10.38,73202.0,-8.69,-41.87,-42.13,0,*58
1485821216.72,65508,10.44,73206.5,-8.67,-41.61,-41.81,0,*59
1485821217.98,65509,10.44,73206.3,-8.69,-41.55,-41.73,0,*5C
1485821219.22,65510,10.44,73206.0,-8.69,-41.73,-41.87,0,*5B
1485821220.48,65511,10.44,73202.0,-8.67,-41.67,-41.81,0,*57
1485821221.75,65512,10.44,73202.3,-8.69,-41.67,-41.87,0,*5C
1485821223.03,65513,10.38,73198.0,-8.69,-41.67,-41.93,0,*58
1485821224.27,65514,10.44,73200.5,-8.69,-41.73,-41.87,0,*5F
1485821225.54,65515,10.44,73200.3,-8.69,-41.55,-41.73,0,*51
1485821226.79,65516,10.44,73200.3,-8.69,-41.73,-41.93,0,*58
1485821228.06,65517,10.44,73202.0,-8.69,-41.55,-41.87,0,*58
1485821229.32,65518,10.44,73202.3,-8.69,-41.67,-41.73,0,*5D
1485821230.55,65519,10.44,73202.8,-8.67,-41.73,-41.93,0,*59
1485821231.81,65520,10.38,73196.8,-8.69,-41.87,-41.93,0,*56
1485821233.07,65521,10.44,73202.3,-8.69,-41.93,-42.37,0,*5F
1485821234.34,65522,10.44,73206.0,-8.69,-41.93,-42.25,0,*5F
1485821235.57,65523,10.44,73206.8,-8.69,-42.25,-42.37,0,*53
1485821236.8,65524,10.44,73206.0,-8.71,-42.05,-42.37,0,*5F
1485821238.02,65525,10.44,73206.0,-8.71,-42.13,-42.51,0,*59
1485821239.26,65526,10.44,73206.5,-8.71,-41.93,-42.25,0,*52
1485821240.52,65527,10.44,73206.8,-8.73,-41.81,-41.99,0,*56
1485821241.76,65528,10.38,73204.0,-8.73,-41.73,-41.99,0,*54
1485821242.99,65529,10.44,73206.5,-8.71,-41.55,-41.87,0,*5C
1485821244.23,65530,10.44,73202.8,-8.71,-41.67,-41.87,0,*55
1485821245.47,65531,10.38,73202.3,-8.71,-41.67,-41.87,0,*54
1485821246.69,65532,10.44,73204.5,-8.71,-41.87,-42.25,0,*52
1485821247.96,65533,10.38,73202.8,-8.73,-41.99,-42.31,0,*5B
1485821249.22,65534,10.38,73204.8,-8.73,-41.99,-42.31,0,*5C
1485821250.46,65535,10.38,73204.3,-8.71,-41.93,-42.25,0,*50
1485821251.7,0,10.44,73204.3,-8.73,-41.99,-42.31,0,*5D
1485821252.95,1,10.44,73204.3,-8.73,-42.13,-42.31,0,*5D
1485821254.19,2,10.44,73204.3,-8.73,-42.13,-42.45,0,*5D
1485821255.44,3,10.38,73206.8,-8.73,-42.31,-42.63,0,*58
1485821256.66,4,10.44,73210.3,-8.73,-42.37,-42.75,0,*5E
1485821257.89,5,10.44,73208.0,-8.73,-42.37,-42.83,0,*56
1485821259.16,6,10.44,73206.5,-8.73,-42.19,-42.45,0,*53
1485821260.4,7,10.38,73202.8,-8.73,-41.99,-42.19,0,*50
1485821261.65,8,10.44,73200.0,-8.73,-42.13,-42.31,0,*54
1485821262.86,9,10.44,73196.3,-8.73,-41.99,-42.13,0,*54
1485821264.05,10,10.44,73200.3,-8.75,-41.73,-41.99,0,*6F
1485821265.3,11,10.38,73192.8,-8.75,-41.93,-42.31,0,*61
1485821266.55,12,10.44,73200.0,-8.77,-42.19,-42.37,0,*67
1485821267.8,13,10.38,73196.3,-8.77,-41.87,-42.05,0,*63
1485821269.02,14,10.38,73200.5,-8.75,-41.99,-42.31,0,*6E
1485821270.24,15,10.44,73204.5,-8.75,-41.99,-42.19,0,*65
1485821271.46,16,10.44,73206.0,-8.75,-41.93,-42.13,0,*66
1485821272.68,17,10.38,73206.5,-8.75,-41.99,-42.31,0,*6D
1485821273.91,18,10.38,73204.3,-8.75,-42.13,-42.31,0,*63
1485821275.13,19,10.38,73204.5,-8.75,-42.13,-42.57,0,*62
1485821276.34,20,10.38,73204.0,-8.75,-42.37,-42.69,0,*63
1485821277.59,21,10.38,73206.8,-8.77,-42.05,-42.37,0,*6A
1485821278.81,22,10.38,73206.8,-8.77,-41.99,-42.25,0,*6C
1485821280.03,23,10.38,73204.8,-8.77,-41.99,-42.37,0,*6E
1485821281.26,24,10.44,73208.5,-8.77,-41.99,-42.25,0,*6A
1485821282.48,25,10.44,73210.3,-8.77,-41.99,-42.25,0,*6B
1485821283.76,26,10.44,73210.0,-8.77,-42.19,-42.69,0,*6B
1485821285.01,27,10.44,73212.0,-8.77,-42.37,-42.69,0,*66
1485821286.23,28,10.44,73208.0,-8.75,-42.19,-42.63,0,*6D
1485821287.47,29,10.38,73208.5,-8.77,-42.25,-42.63,0,*61
1485821288.72,30,10.38,73208.0,-8.77,-42.25,-42.69,0,*63
1485821289.97,31,10.38,73204.8,-8.77,-42.37,-42.69,0,*61
1485821291.24,32,10.38,73206.8,-8.77,-42.45,-42.83,0,*63
1485821292.49,33,10.38,73206.0,-8.77,-42.37,-42.83,0,*67
1485821293.71,34,10.38,73208.5,-8.77,-42.51,-42.89,0,*6A
1485821294.93,35,10.38,73210.3,-8.81,-42.51,-42.89,0,*62
1485821296.14,36,10.38,73210.0,-8.81,-42.51,-42.89,0,*61
1485821297.34,37,10.38,73204.5,-8.83,-42.51,-42.89,0,*62
1485821298.53,38,10.38,73208.5,-8.83,-42.51,-42.89,0,*6D
1485821299.77,39,10.38,73208.0,-8.81,-42.13,-42.57,0,*6B
1485821301.02,40,10.44,73210.3,-8.81,-42.13,-42.45,0,*66
1485821302.23,41,10.44,73210.0,-8.83,-42.25,-42.57,0,*63